timestamp,surface_pressure_avg,surface_temp_avg,battery_voltage,lat,long
2019-11-19 00:09:01+00:00,215.4398,6.39,12.73,47.84626,-54.09684
2019-11-19 00:19:01+00:00,220.9248,6.57,12.73,47.84626,-54.09684
2019-11-19 00:29:01+00:00,229.3748,6.7,12.73,47.84626,-54.09684
2019-11-19 00:39:01+00:00,237.6331,6.94,12.73,47.84626,-54.09684
2019-11-19 00:49:01+00:00,243.3631,7.09,12.73,47.84626,-54.09684
2019-11-19 00:59:01+00:00,246.0364,7.0,12.73,47.84626,-54.09684
2019-11-19 01:09:01+00:00,248.3231,6.94,12.73,47.84626,-54.09684
2019-11-19 01:19:01+00:00,257.5281,7.04,12.73,47.84626,-54.09684
2019-11-19 01:29:01+00:00,263.3748,7.13,12.73,47.84626,-54.09684
2019-11-19 01:39:01+00:00,265.623,7.19,12.73,47.84626,-54.09684
2019-11-19 01:49:01+00:00,267.0981,7.1,12.73,47.84626,-54.09684
2019-11-19 01:59:01+00:00,278.7331,7.0,12.73,47.84626,-54.09684
2019-11-19 02:09:01+00:00,285.488,7.0,12.73,47.84626,-54.09684
2019-11-19 02:19:01+00:00,292.5264,7.1,12.65,47.84626,-54.09684
2019-11-19 02:29:01+00:00,299.5347,7.1,12.65,47.84626,-54.09684
2019-11-19 02:39:01+00:00,305.8397,7.1,12.65,47.84626,-54.09684
2019-11-19 02:49:01+00:00,306.253,7.06,12.65,47.84626,-54.09684
2019-11-19 02:59:01+00:00,312.5179,7.1,12.65,47.84626,-54.09684
2019-11-19 03:09:01+00:00,317.8247,7.0,12.65,47.84626,-54.09684
2019-11-19 03:19:01+00:00,314.1913,7.0,12.65,47.84626,-54.09684
2019-11-19 03:29:01+00:00,308.8262,7.0,12.65,47.84626,-54.09684
2019-11-19 03:39:01+00:00,314.7064,7.1,12.65,47.84626,-54.09684
2019-11-19 03:49:01+00:00,325.1063,7.1,12.65,47.84626,-54.09684
2019-11-19 03:59:01+00:00,324.6513,7.1,12.65,47.84626,-54.09684
2019-11-19 04:09:01+00:00,314.2396,7.1,12.65,47.84626,-54.09684
2019-11-19 04:19:01+00:00,321.3346,7.1,12.65,47.84626,-54.09684
2019-11-19 04:29:01+00:00,326.6029,7.1,12.65,47.84626,-54.09684
2019-11-19 04:39:01+00:00,325.4696,7.08,12.65,47.84626,-54.09684
2019-11-19 04:49:01+00:00,325.1047,7.1,12.65,47.84626,-54.09684
2019-11-19 04:59:01+00:00,333.588,7.2,12.65,47.84626,-54.09684
2019-11-19 05:09:01+00:00,337.4264,7.2,12.65,47.84626,-54.09684
2019-11-19 05:19:01+00:00,330.713,7.2,12.65,47.84626,-54.09684
2019-11-19 05:29:01+00:00,317.7413,7.15,12.65,47.84626,-54.09684
2019-11-19 05:39:01+00:00,307.9547,7.11,12.65,47.84626,-54.09684
2019-11-19 05:49:01+00:00,313.2463,7.1,12.65,47.84626,-54.09684
2019-11-19 05:59:01+00:00,319.0696,7.0,12.65,47.84626,-54.09684
2019-11-19 06:09:01+00:00,317.0297,6.8,12.65,47.84626,-54.09684
2019-11-19 06:19:01+00:00,304.3714,6.94,12.65,47.84626,-54.09684
2019-11-19 06:29:01+00:00,299.468,7.1,12.65,47.84626,-54.09684
2019-11-19 06:39:01+00:00,290.6114,7.1,12.65,47.84626,-54.09684
2019-11-19 06:49:01+00:00,282.8647,7.1,12.65,47.84626,-54.09684
2019-11-19 06:59:01+00:00,289.4998,7.3,12.65,47.84626,-54.09684
2019-11-19 07:09:01+00:00,298.1813,7.41,12.65,47.84626,-54.09684
2019-11-19 07:19:01+00:00,285.0714,7.4,12.65,47.84626,-54.09684
2019-11-19 07:29:01+00:00,259.8797,7.29,12.65,47.84626,-54.09684
2019-11-19 07:39:01+00:00,263.5714,7.3,12.65,47.84626,-54.09684
2019-11-19 07:49:01+00:00,272.1147,7.34,12.65,47.84626,-54.09684
2019-11-19 07:59:01+00:00,258.553,7.3,12.65,47.84626,-54.09684
2019-11-19 08:09:01+00:00,247.6647,7.27,12.65,47.84626,-54.09684
2019-11-19 08:19:01+00:00,259.2414,7.3,12.65,47.84626,-54.09684
2019-11-19 08:29:01+00:00,259.5231,7.3,12.65,47.84626,-54.09684
2019-11-19 08:39:01+00:00,231.6831,7.0,12.65,47.84626,-54.09684
2019-11-19 08:49:01+00:00,224.4231,7.09,12.65,47.84626,-54.09684
2019-11-19 08:59:01+00:00,248.8081,7.1,12.65,47.84626,-54.09684
2019-11-19 09:09:01+00:00,245.3714,6.88,12.65,47.84626,-54.09684
2019-11-19 09:19:01+00:00,226.5781,6.6,12.65,47.84626,-54.09684
2019-11-19 09:29:01+00:00,228.3431,6.9,12.65,47.84626,-54.09684
2019-11-19 09:39:01+00:00,236.9214,7.2,12.65,47.84626,-54.09684
2019-11-19 09:49:01+00:00,239.6764,6.8,12.65,47.84626,-54.09684
2019-11-19 09:59:01+00:00,240.7597,7.02,12.65,47.84626,-54.09684
2019-11-19 10:09:01+00:00,235.3498,7.2,12.65,47.84626,-54.09684
2019-11-19 10:19:01+00:00,227.2498,7.08,12.65,47.84626,-54.09684
2019-11-19 10:29:01+00:00,232.5797,7.0,12.65,47.84626,-54.09684
2019-11-19 10:39:01+00:00,246.4881,7.06,12.65,47.84626,-54.09684
2019-11-19 10:49:01+00:00,250.9998,7.0,12.65,47.84626,-54.09684
2019-11-19 10:59:01+00:00,253.4947,6.88,12.65,47.84626,-54.09684
2019-11-19 11:09:01+00:00,255.9364,6.79,12.65,47.84626,-54.09684
2019-11-19 11:19:01+00:00,257.7014,6.7,12.65,47.84626,-54.09684
2019-11-19 11:29:01+00:00,266.9031,6.6,12.65,47.84626,-54.09684
2019-11-19 11:39:01+00:00,268.1681,6.59,12.65,47.84626,-54.09684
2019-11-19 11:49:01+00:00,264.9131,6.5,12.65,47.84626,-54.09684
2019-11-19 11:59:01+00:00,270.2781,6.54,12.65,47.84626,-54.09684
2019-11-19 12:09:01+00:00,272.8647,6.51,12.65,47.84626,-54.09684
2019-11-19 12:19:01+00:00,269.4297,6.55,12.65,47.84626,-54.09684
2019-11-19 12:29:01+00:00,268.5381,6.59,12.65,47.84626,-54.09684
2019-11-19 12:39:01+00:00,272.1514,6.6,12.65,47.84626,-54.09684
2019-11-19 12:49:01+00:00,266.588,6.6,12.65,47.84626,-54.09684
2019-11-19 12:59:01+00:00,276.0331,6.59,12.65,47.84626,-54.09684
2019-11-19 13:09:01+00:00,282.4748,6.6,12.65,47.84626,-54.09684
2019-11-19 13:19:01+00:00,283.4048,6.6,12.65,47.84626,-54.09684
2019-11-19 13:29:01+00:00,280.9514,6.6,12.65,47.84626,-54.09684
2019-11-19 13:39:01+00:00,291.0764,6.6,12.65,47.84626,-54.09684
2019-11-19 13:49:01+00:00,296.9614,6.69,12.65,47.84626,-54.09684
2019-11-19 13:59:01+00:00,307.1962,6.77,12.65,47.84626,-54.09684
2019-11-19 14:09:01+00:00,312.3713,6.8,12.65,47.84626,-54.09684
2019-11-19 14:19:01+00:00,312.5764,6.86,12.65,47.84626,-54.09684
2019-11-19 14:29:01+00:00,311.8463,6.89,12.65,47.84626,-54.09684
2019-11-19 14:39:01+00:00,327.658,6.89,12.65,47.84626,-54.09684
2019-11-19 14:49:01+00:00,341.0779,6.98,12.65,47.84626,-54.09684
2019-11-19 14:59:01+00:00,341.3146,6.9,12.65,47.84626,-54.09684
2019-11-19 15:09:01+00:00,341.9063,6.96,12.65,47.84626,-54.09684
2019-11-19 15:19:01+00:00,356.8762,7.09,12.73,47.84626,-54.09684
2019-11-19 15:29:01+00:00,360.2396,7.1,12.73,47.84626,-54.09684
2019-11-19 15:39:01+00:00,353.5746,6.99,12.73,47.84626,-54.09684
2019-11-19 15:49:01+00:00,354.6213,6.95,12.73,47.84626,-54.09684
2019-11-19 15:59:01+00:00,358.4462,7.0,12.73,47.84626,-54.09684
2019-11-19 16:09:01+00:00,352.7797,7.0,12.73,47.84626,-54.09684
2019-11-19 16:19:01+00:00,352.3446,7.0,12.73,47.84626,-54.09684
2019-11-19 16:29:01+00:00,361.9862,7.16,12.73,47.84626,-54.09684
2019-11-19 16:39:01+00:00,358.7762,7.0,12.73,47.84626,-54.09684
2019-11-19 16:49:01+00:00,352.2029,6.84,12.73,47.84626,-54.09684
2019-11-19 16:59:01+00:00,353.0046,7.0,12.73,47.84626,-54.09684
2019-11-19 17:09:01+00:00,360.7046,7.0,12.73,47.84626,-54.09684
2019-11-19 17:19:01+00:00,365.2296,7.1,12.73,47.84626,-54.09684
2019-11-19 17:29:01+00:00,368.403,7.12,12.73,47.84626,-54.09684
2019-11-19 17:39:01+00:00,362.4695,7.1,12.73,47.84626,-54.09684
2019-11-19 17:49:01+00:00,350.7497,7.1,12.73,47.84626,-54.09684
2019-11-19 17:59:01+00:00,360.8345,7.1,12.73,47.84626,-54.09684
2019-11-19 18:09:01+00:00,369.918,7.14,12.73,47.84626,-54.09684
2019-11-19 18:19:01+00:00,346.31300000000016,7.0,12.65,47.84626,-54.09684
2019-11-19 18:29:01+00:00,330.6763,6.97,12.65,47.84626,-54.09684
2019-11-19 18:39:01+00:00,351.0347,7.0,12.65,47.84626,-54.09684
2019-11-19 18:49:01+00:00,351.0779,6.88,12.65,47.84626,-54.09684
2019-11-19 18:59:01+00:00,316.1514,6.68,12.65,47.84626,-54.09684
2019-11-19 19:09:01+00:00,305.0179,7.12,12.65,47.84626,-54.09684
2019-11-19 19:19:01+00:00,323.0229,7.37,12.65,47.84626,-54.09684
2019-11-19 19:29:01+00:00,316.8464,7.3,12.65,47.84626,-54.09684
2019-11-19 19:39:01+00:00,290.7947,7.1,12.65,47.84626,-54.09684
2019-11-19 19:49:01+00:00,287.678,7.37,12.65,47.84626,-54.09684
2019-11-19 19:59:01+00:00,297.4047,7.43,12.65,47.84626,-54.09684
2019-11-19 20:09:01+00:00,284.5897,7.2,12.65,47.84626,-54.09684
2019-11-19 20:19:01+00:00,267.0164,7.0,12.65,47.84626,-54.09684
2019-11-19 20:29:01+00:00,270.2514,7.21,12.65,47.84626,-54.09684
2019-11-19 20:39:01+00:00,266.9031,7.3,12.65,47.84626,-54.09684
2019-11-19 20:49:01+00:00,247.6398,7.0,12.65,47.84626,-54.09684
2019-11-19 20:59:01+00:00,247.6248,7.14,12.65,47.84626,-54.09684
2019-11-19 21:09:01+00:00,257.6097,7.39,12.65,47.84626,-54.09684
2019-11-19 21:19:01+00:00,255.4364,7.31,12.65,47.84626,-54.09684
2019-11-19 21:29:01+00:00,247.4731,7.3,12.65,47.84626,-54.09684
2019-11-19 21:39:01+00:00,251.8482,7.19,12.65,47.84626,-54.09684
2019-11-19 21:49:01+00:00,252.0064,7.1,12.65,47.84626,-54.09684
2019-11-19 21:59:01+00:00,244.4964,7.07,12.65,47.84626,-54.09684
2019-11-19 22:09:01+00:00,241.8164,7.0,12.65,47.84626,-54.09684
2019-11-19 22:19:01+00:00,238.0365,7.0,12.65,47.84626,-54.09684
2019-11-19 22:29:01+00:00,231.1082,6.9,12.65,47.84626,-54.09684
2019-11-19 22:39:01+00:00,226.3464,6.9,12.65,47.84626,-54.09684
2019-11-19 22:49:01+00:00,234.3848,6.87,12.65,47.84626,-54.09684
2019-11-19 22:59:01+00:00,237.0881,6.89,12.65,47.84626,-54.09684
2019-11-19 23:09:01+00:00,231.2448,6.9,12.65,47.84626,-54.09684
2019-11-19 23:19:01+00:00,228.7181,6.91,12.65,47.84626,-54.09684
2019-11-19 23:29:01+00:00,233.7148,6.99,12.65,47.84626,-54.09684
2019-11-19 23:39:01+00:00,234.9148,7.1,12.65,47.84626,-54.09684
2019-11-19 23:49:01+00:00,234.6681,7.1,12.65,47.84626,-54.09684
2019-11-19 23:59:01+00:00,229.1714,7.1,12.65,47.84626,-54.09684
